Weather History for Langdon, ND

Change the Weather History Date:

Sunday, June 16, 2013

  Actual Average (KDVL) Record (KDVL)
Temperature  
Mean Temperature 62 °F -  
Max Temperature 71 °F 74 °F 90 °F (1987)
Min Temperature 53 °F 50 °F 37 °F (1972)
Degree Days  
Heating Degree Days 3    
Growing Degree Days 12 (Base 50)    
Moisture  
Dew Point 51 °F    
Average Humidity 68    
Maximum Humidity 100    
Minimum Humidity 43    
Precipitation  
Precipitation 0.00 in - - ()
Sea Level Pressure  
Sea Level Pressure 29.83 in    
Wind  
Wind Speed 13 mph (West)    
Max Wind Speed 29 mph    
Max Gust Speed 38 mph    
Visibility 10 miles    
Events Rain    
Averages and records for this station are not official NWS values.
T = Trace of Precipitation, MM = Missing Value Source: NWS Daily Summary

Daily Weather History Graph

Daily Weather History Graph

Search for Another Location

Airport:

Trip Planner

Search our weather history database for the weather conditions in past years. The results will help you decide how hot, cold, wet, or windy it might be!

Date:

Astronomy

Jun. 16, 2013 Rise Set
Actual Time 5:29 AM CDT 9:38 PM CDT
Civil Twilight 4:47 AM CDT 10:21 PM CDT
Nautical Twilight 3:47 AM CDT 11:21 PM CDT
Astronomical Twilight 2:06 AM CDT 1:02 AM CDT
Moon 1:44 PM CDT (6/16) 1:10 AM CDT (6/16)
Length of Visible Light 17h 33m
Length of Day
16h 09m
Waxing Crescent, 50% of the Moon is Illuminated
Jun 16
Waxing Crescent
Jun 16
First Quarter
Jun 23
Full
Jun 29
Last Quarter
Jul 8
New

Hourly Weather History & Observations

Time (CDT) Temp. Dew Point Humidity Pressure Visibility Wind Dir Wind Speed Gust Speed Precip Events Conditions
12:15 AM 59.0 °F 50.0 °F 72% 29.83 in 10.0 mi WSW 9.2 mph - N/A   Mostly Cloudy
12:35 AM 59.0 °F 50.0 °F 72% 29.82 in 10.0 mi WSW 10.4 mph - N/A   Mostly Cloudy
12:55 AM 57.2 °F 50.0 °F 77% 29.82 in 10.0 mi WSW 10.4 mph - N/A   Partly Cloudy
1:15 AM 55.4 °F 50.0 °F 82% 29.81 in 10.0 mi WSW 10.4 mph - N/A   Partly Cloudy
1:35 AM 55.4 °F 50.0 °F 82% 29.81 in 10.0 mi WSW 10.4 mph - N/A   Clear
1:55 AM 55.4 °F 50.0 °F 82% 29.81 in 10.0 mi WSW 9.2 mph - N/A   Clear
2:15 AM 53.6 °F 50.0 °F 88% 29.81 in 10.0 mi WSW 10.4 mph - N/A   Clear
2:35 AM 55.4 °F 50.0 °F 82% 29.81 in 10.0 mi WSW 12.7 mph - N/A   Clear
2:55 AM 55.4 °F 50.0 °F 82% 29.81 in 10.0 mi WSW 11.5 mph - N/A   Clear
3:15 AM 55.4 °F 50.0 °F 82% 29.81 in 10.0 mi WSW 11.5 mph - N/A   Clear
3:35 AM 55.4 °F 51.8 °F 88% 29.82 in 10.0 mi WSW 10.4 mph - N/A   Partly Cloudy
3:55 AM 53.6 °F 51.8 °F 94% 29.81 in 10.0 mi WSW 10.4 mph - N/A   Partly Cloudy
4:15 AM 53.6 °F 51.8 °F 94% 29.81 in 10.0 mi WSW 10.4 mph - N/A   Clear
4:35 AM 53.6 °F 51.8 °F 94% 29.81 in 10.0 mi WSW 11.5 mph - N/A   Clear
4:55 AM 53.6 °F 51.8 °F 94% 29.81 in 10.0 mi WSW 9.2 mph - N/A   Clear
5:15 AM 53.6 °F 51.8 °F 94% 29.81 in 10.0 mi WSW 10.4 mph - N/A   Clear
5:35 AM 53.6 °F 51.8 °F 94% 29.81 in 10.0 mi WSW 10.4 mph - N/A   Clear
5:55 AM 53.6 °F 51.8 °F 94% 29.81 in 10.0 mi WSW 10.4 mph - N/A   Clear
6:15 AM 53.6 °F 53.6 °F 100% 29.81 in 10.0 mi WSW 11.5 mph 21.9 mph N/A   Clear
6:35 AM 55.4 °F 53.6 °F 94% 29.82 in 10.0 mi WSW 9.2 mph - N/A   Clear
6:55 AM 57.2 °F 53.6 °F 88% 29.83 in 10.0 mi WSW 11.5 mph - N/A   Clear
7:15 AM 59.0 °F 53.6 °F 82% 29.83 in 10.0 mi WSW 11.5 mph - N/A   Clear
7:35 AM 60.8 °F 53.6 °F 77% 29.83 in 10.0 mi West 12.7 mph - N/A   Clear
7:55 AM 62.6 °F 53.6 °F 72% 29.82 in 10.0 mi West 15.0 mph 19.6 mph N/A   Clear
8:15 AM 64.4 °F 51.8 °F 64% 29.82 in 10.0 mi West 17.3 mph 21.9 mph N/A   Clear
8:55 AM 66.2 °F 50.0 °F 56% 29.82 in 10.0 mi West 21.9 mph 28.8 mph N/A   Clear
9:15 AM 66.2 °F 48.2 °F 52% 29.82 in 10.0 mi West 26.5 mph 32.2 mph N/A   Clear
9:35 AM 66.2 °F 50.0 °F 56% 29.82 in 10.0 mi West 21.9 mph 29.9 mph N/A   Clear
9:55 AM 68.0 °F 48.2 °F 49% 29.81 in 10.0 mi West 26.5 mph 33.4 mph N/A   Clear
10:35 AM 68.0 °F 48.2 °F 49% 29.82 in 10.0 mi West 24.2 mph 31.1 mph N/A   Clear
10:55 AM 69.8 °F 48.2 °F 46% 29.82 in 10.0 mi West 21.9 mph 34.5 mph N/A   Clear
11:15 AM 69.8 °F 48.2 °F 46% 29.82 in 10.0 mi West 28.8 mph 34.5 mph N/A   Clear
11:35 AM 68.0 °F 48.2 °F 49% 29.82 in 10.0 mi West 26.5 mph 34.5 mph N/A   Scattered Clouds
11:55 AM 69.8 °F 48.2 °F 46% 29.82 in 10.0 mi West 28.8 mph 36.8 mph N/A   Mostly Cloudy
12:15 PM 68.0 °F 48.2 °F 49% 29.82 in 10.0 mi West 24.2 mph 38.0 mph N/A   Overcast
12:35 PM 68.0 °F 48.2 °F 49% 29.82 in 10.0 mi West 25.3 mph 36.8 mph N/A   Overcast
12:55 PM 69.8 °F 50.0 °F 49% 29.82 in 10.0 mi West 23.0 mph 32.2 mph N/A   Mostly Cloudy
1:15 PM 69.8 °F 48.2 °F 46% 29.82 in 10.0 mi WNW 24.2 mph 36.8 mph N/A   Mostly Cloudy
1:35 PM 71.6 °F 48.2 °F 43% 29.82 in 10.0 mi WNW 23.0 mph 32.2 mph N/A   Mostly Cloudy
1:55 PM 68.0 °F 48.2 °F 49% 29.82 in 10.0 mi WNW 20.7 mph 27.6 mph N/A   Overcast
2:15 PM 68.0 °F 50.0 °F 52% 29.83 in 10.0 mi NW 17.3 mph 24.2 mph N/A   Overcast
2:35 PM 66.2 °F 48.2 °F 52% 29.83 in 10.0 mi WNW 18.4 mph 23.0 mph N/A   Overcast
2:55 PM 68.0 °F 50.0 °F 52% 29.83 in 10.0 mi WNW 17.3 mph 21.9 mph N/A   Overcast
3:15 PM 68.0 °F 50.0 °F 52% 29.83 in 10.0 mi WNW 17.3 mph 25.3 mph N/A   Mostly Cloudy
3:35 PM 68.0 °F 50.0 °F 52% 29.84 in 10.0 mi WNW 17.3 mph 21.9 mph N/A   Mostly Cloudy
3:55 PM 68.0 °F 50.0 °F 52% 29.84 in 10.0 mi West 18.4 mph 24.2 mph N/A   Overcast
4:15 PM 68.0 °F 50.0 °F 52% 29.84 in 10.0 mi WNW 15.0 mph 23.0 mph N/A   Overcast
4:35 PM 68.0 °F 50.0 °F 52% 29.84 in 10.0 mi NW 13.8 mph 19.6 mph N/A   Overcast
4:55 PM 68.0 °F 50.0 °F 52% 29.85 in 10.0 mi West 13.8 mph 20.7 mph N/A   Overcast
5:15 PM 66.2 °F 50.0 °F 56% 29.85 in 10.0 mi WNW 18.4 mph 25.3 mph N/A Rain Light Rain
5:35 PM 68.0 °F 50.0 °F 52% 29.85 in 10.0 mi WNW 15.0 mph 23.0 mph N/A   Overcast
5:55 PM 68.0 °F 50.0 °F 52% 29.85 in 10.0 mi WNW 16.1 mph - N/A   Overcast
6:15 PM 68.0 °F 50.0 °F 52% 29.85 in 10.0 mi WNW 16.1 mph 20.7 mph N/A   Mostly Cloudy
6:35 PM 66.2 °F 50.0 °F 56% 29.85 in 10.0 mi WNW 17.3 mph 21.9 mph N/A   Scattered Clouds
6:55 PM 66.2 °F 51.8 °F 60% 29.85 in 10.0 mi WNW 15.0 mph - N/A   Mostly Cloudy
7:15 PM 64.4 °F 53.6 °F 68% 29.85 in 10.0 mi WNW 16.1 mph - N/A   Mostly Cloudy
7:35 PM 66.2 °F 51.8 °F 60% 29.85 in 10.0 mi WNW 12.7 mph - N/A   Mostly Cloudy
7:55 PM 66.2 °F 50.0 °F 56% 29.86 in 10.0 mi WNW 15.0 mph - N/A   Mostly Cloudy
8:15 PM 66.2 °F 50.0 °F 56% 29.86 in 10.0 mi WNW 13.8 mph - N/A   Mostly Cloudy
8:35 PM 66.2 °F 51.8 °F 60% 29.86 in 10.0 mi WNW 11.5 mph - N/A   Mostly Cloudy
8:55 PM 64.4 °F 53.6 °F 68% 29.86 in 10.0 mi NW 10.4 mph - N/A   Partly Cloudy
9:15 PM 62.6 °F 53.6 °F 72% 29.86 in 10.0 mi NW 8.1 mph - N/A   Clear
9:35 PM 62.6 °F 53.6 °F 72% 29.87 in 10.0 mi NW 8.1 mph - N/A   Scattered Clouds
9:55 PM 62.6 °F 53.6 °F 72% 29.88 in 10.0 mi NW 8.1 mph - N/A   Scattered Clouds
10:15 PM 60.8 °F 53.6 °F 77% 29.88 in 10.0 mi NNW 6.9 mph - N/A   Clear
10:35 PM 57.2 °F 53.6 °F 88% 29.88 in 10.0 mi NNW 6.9 mph - N/A   Clear
10:55 PM 57.2 °F 53.6 °F 88% 29.89 in 10.0 mi NNW 8.1 mph - N/A   Scattered Clouds
11:15 PM 57.2 °F 53.6 °F 88% 29.90 in 10.0 mi North 8.1 mph - N/A   Partly Cloudy
11:35 PM 55.4 °F 53.6 °F 94% 29.90 in 10.0 mi North 4.6 mph - N/A   Clear
11:55 PM 55.4 °F 53.6 °F 94% 29.90 in 10.0 mi North 4.6 mph - N/A   Clear